Other Surface Observations
Issued by NWS Tucson, AZ

Home | Current Version | Previous Version | Text Only | Print | Product List | Glossary On
Versions: 1 2 3 4 5 6 7 8 9 10 11 12 13 14 15 16 17 18 19 20 21 22 23 24 25 26 27 28 29 30 31 32 33 34 35 36 37 38 39 40 41 42 43 44 45 46 47 48 49 50
431
SXUS55 KTWC 300715
OSOTWC

WEATHER ROUNDUP FOR SOUTHEAST ARIZONA
NATIONAL WEATHER SERVICE TUCSON AZ
1215 AM MST TUE MAY 30 2017

AZZ504>506-514-300815-
LOCATION       SKY/WX    TMP DP  RH WIND       PRES   REMARKS
TUCSON         MOCLDY    81  31  16 SE6       29.91S
DAVIS-MONTHAN  NOT AVBL
CHILDRENS PARK N/A      N/A N/A  14 N4                PIMA CO DEQ
ALVERNON/22ND  N/A       84 N/A N/A NW3               PIMA CO DEQ
CHERRY/GLENN   N/A      N/A N/A N/A N/A               PIMA CO DEQ
TANGERINE      N/A       82 N/A N/A NW4               PIMA CO DEQ
CONTL RANCH    N/A       85  27  12 W7                PIMA CO DEQ
GRANT/1ST      N/A       84  31  15 W3                PIMA CO DEQ
CRAYCROFT/22ND N/A       84  31  15 N/A               PIMA CO DEQ
GOLFLINKS/KOLB N/A      N/A N/A N/A N/A               PIMA CO DEQ
AJO/12TH       N/A       85  30  14 W7                PIMA CO DEQ
FAIRGROUNDS    N/A       80 N/A N/A SW4               PIMA CO DEQ
SAGUARO        N/A       81  31  16 SE3G15            *SABINO CYN
SAN CARLOS     N/A       80  33  18 NE3               *SAN CARLOS
GREEN VALLEY   N/A       81  36  20 S6                PIMA CO DEQ
HORSE CAMP CYN N/A       78  32  19 E10G15            *ARAVAIPA CYN
RINCON MTNS    N/A       60  14  16 NE4G11            *NR MANNING CAMP
$$

AZZ509>511-300815-
LOCATION       SKY/WX    TMP DP  RH WIND       PRES   REMARKS
SAFFORD        PTCLDY    78  34  20 E9        29.96R
STRAY HORSE    N/A       59  29  32 N/A               *
TRAIL CABIN    N/A       63  35  35 E7G10             *N OF GRANVILLE
BLACK HILLS    NOT AVBL
DRY LAKE       N/A       59  31  35 SE5G10            *NATANES MTNS
NOON CREEK     N/A       70  34  26 SW4G11            *PINALENO MTNS
COLUMBINE      N/A       52  32  46 E3                *PINALENO MTNS
GUTHRIE        N/A       66  33  29 E12G19            *SW OF GUTHRIE
$$

AZZ502-503-513-300815-
LOCATION       SKY/WX    TMP DP  RH WIND       PRES   REMARKS
NOGALES        MOCLDY    70  31  23 SE6       29.98F
SELLS          N/A       74  25  16 E3                *
SASABE         N/A       70  29  22 S6                *ALTAR VLY
HOPKINS        N/A       66  24  20 NW7G13            *SANTA RITA MTNS
CARR CYN       N/A       70  20  15 S2G10             *W OF HEREFORD
$$

AZZ507-508-512-300815-
LOCATION       SKY/WX    TMP DP  RH WIND       PRES   REMARKS
SIERRA VISTA   PTCLDY    68  22  17 W7        30.04S
DOUGLAS        CLEAR     68  36  30 SE6       30.00F
EMPIRE MTNS    NOT AVBL
MULESHOE RANCH N/A       78  34  20 E11G21            *PRESERVE
HEADQUARTERS   N/A       70  40  33 E7G23             *CHIRICAHUA MTNS
$$

.............................NOTES.............................
THIS IS AN AUTOMATED COLLECTIVE WITH MINIMAL QUALITY CONTROL.
PIMA CO DEQ SITES HAVE NONSTANDARD WIND SENSOR HEIGHTS.
PIMA CO DEQ SITES DO NOT REPORT WIND GUSTS.
* INDICATES WIND SENSORS LOCATED AT 20 FEET INSTEAD OF 33 FEET.
..............................KEY..............................
SKY/WX - SKY CONDITION/WEATHER
TMP    - TEMPERATURE IN FAHRENHEIT
DP     - DEWPOINT IN FAHRENHEIT
RH     - RELATIVE HUMIDITY IN PERCENT
WIND   - DIRECTION AND SPEED IN MILES PER HOUR (MPH)
VRB    - VARIABLE WIND DIRECTION
PRES   - MEAN SEA LEVEL PRESSURE IN INCHES OF MERCURY
         F - FALLING PRESSURE   R - RISING PRESSURE
         S - STEADY PRESSURE
VSB    - VISIBILITY IN MILES
HX     - HEAT INDEX IN FAHRENHEIT
WCI    - WIND CHILL INDEX IN FAHRENHEIT
N/A    - NOT AVAILABLE
AFB    - AIR FORCE BASE
         DAVIS-MONTHAN IS DAVIS-MONTHAN AIR FORCE BASE
CYN    - CANYON
MTNS   - MOUNTAINS
NCA    - NATIONAL CONSERVATION AREA
NR     - NEAR
VLY    - VALLEY
CONTL  - CONTINENTAL
PIMA CO DEQ - PIMA COUNTY DEPT OF ENVIRONMENTAL QUALITY



USA.gov is the U.S. government's official web portal to all federal, state and local government web resources and services.